TimeSAST,TemperatureF,Dew PointF,Humidity,Sea Level PressureIn,VisibilityMPH,Wind Direction,Wind SpeedMPH,Gust SpeedMPH,PrecipitationIn,Events,Conditions,WindDirDegrees,DateUTC
12:00 AM,42.8,39.2,87,30.12,-9999.0,NNW,4.6,-,N/A,,Clear,330,2013-08-23 22:00:00
1:00 AM,44.6,41.0,87,30.12,-9999.0,North,4.6,-,N/A,,Clear,350,2013-08-23 23:00:00
2:00 AM,41.0,39.2,93,30.15,-9999.0,WNW,4.6,-,N/A,,Clear,300,2013-08-24 00:00:00
3:00 AM,48.2,42.8,82,30.18,6.2,NW,6.9,-,N/A,,Overcast,320,2013-08-24 01:00:00
4:00 AM,50.0,44.6,82,30.15,6.2,NW,8.1,-,N/A,,Overcast,320,2013-08-24 02:00:00
5:00 AM,49,43,74,30.16,12,NNW,4.6,,,,Scattered Clouds,330,2013-08-24 03:00:00
5:00 AM,48.2,42.8,82,30.15,6.2,NNW,4.6,-,N/A,,Partly Cloudy,330,2013-08-24 03:00:00
6:00 AM,46.4,41.0,81,30.15,6.2,North,4.6,-,N/A,,Partly Cloudy,350,2013-08-24 04:00:00
7:00 AM,44.6,39.2,81,30.18,6.2,NW,6.9,-,N/A,,Partly Cloudy,320,2013-08-24 05:00:00
8:00 AM,48,42,72,30.23,12,NW,6.9,,,,Scattered Clouds,320,2013-08-24 06:00:00
8:00 AM,48.2,41.0,76,30.21,6.2,NW,6.9,-,N/A,,Partly Cloudy,320,2013-08-24 06:00:00
9:00 AM,55.4,44.6,67,30.24,6.2,WNW,6.9,-,N/A,,Partly Cloudy,290,2013-08-24 07:00:00
10:00 AM,59.0,44.6,59,30.27,6.2,West,15.0,-,N/A,,Scattered Clouds,280,2013-08-24 08:00:00
11:00 AM,61,44,42,30.27,12,WNW,13.8,,,,Scattered Clouds,290,2013-08-24 09:00:00
11:00 AM,60.8,44.6,55,30.27,6.2,WNW,13.8,-,N/A,,Partly Cloudy,290,2013-08-24 09:00:00
12:00 PM,62.6,42.8,48,30.27,6.2,West,13.8,-,N/A,,Partly Cloudy,280,2013-08-24 10:00:00
1:00 PM,62.6,42.8,48,30.24,6.2,West,11.5,-,N/A,,Partly Cloudy,260,2013-08-24 11:00:00
2:00 PM,62,46,44,30.26,12,SSW,12.7,,,,Partly Cloudy,200,2013-08-24 12:00:00
2:00 PM,62.6,46.4,55,30.24,6.2,SSW,12.7,-,N/A,,Scattered Clouds,200,2013-08-24 12:00:00
3:00 PM,60.8,48.2,63,30.24,6.2,SSW,13.8,-,N/A,,Partly Cloudy,200,2013-08-24 13:00:00
4:00 PM,59.0,46.4,63,30.27,6.2,SSW,9.2,-,N/A,,Partly Cloudy,200,2013-08-24 14:00:00
5:00 PM,58,46,55,30.30,12,SSW,5.8,,,,Partly Cloudy,200,2013-08-24 15:00:00
5:00 PM,59.0,46.4,63,30.27,6.2,SSW,5.8,-,N/A,,Scattered Clouds,210,2013-08-24 15:00:00
6:00 PM,57.2,46.4,67,30.30,6.2,Variable,2.3,-,N/A,,Partly Cloudy,0,2013-08-24 16:00:00
7:00 PM,55.4,44.6,67,30.30,6.2,Variable,2.3,-,N/A,,Partly Cloudy,0,2013-08-24 17:00:00
8:00 PM,51,45,72,30.34,12,NNE,3.5,,,,Scattered Clouds,20,2013-08-24 18:00:00
9:00 PM,50.0,42.8,76,30.33,-9999.0,NNE,4.6,-,N/A,,Clear,30,2013-08-24 19:00:00
10:00 PM,48.2,42.8,82,30.33,-9999.0,NNE,4.6,-,N/A,,Clear,30,2013-08-24 20:00:00
11:00 PM,48.2,42.8,82,30.33,-9999.0,NNE,3.5,-,N/A,,Clear,20,2013-08-24 21:00:00